User: anonymous   Login
Location: Unspecified
(0.0000°N, 0.0000°E)
Time: 17:34:56
(UTC+02:00)
Language:

OPAL - Orbit

View from above orbital plane
View from above orbital plane
View from above satellite
View from above satellite

Ground track
Ground track

The orbit data is extracted from the following two-line orbital elements,

1 26063U 00004C   18116.12481217 -.00000021  00000-0  12731-4 0  9996
2 26063 100.1943 182.6043 0036991 145.6853 214.6728 14.36695353956310
Epoch (UTC): 26 April 2018 02:59:43
Eccentricity: 0.0036991
inclination: 100.1943°
perigee height: 743 km
apogee height: 796 km
right ascension of ascending node: 182.6043°
argument of perigee: 145.6853°
revolutions per day: 14.36695353
mean anomaly at epoch: 214.6728°
orbit number at epoch: 95631

The dashed part of the orbit path shows where the satellite is in the earth's shadow,  

DLR